Tracking 35280 objects as of 7-Sep-2026
HD Live streaming from Space Station
objects crossing your sky now

FREGAT DEB

Track FREGAT DEB now!
10-day predictions


NORAD ID: 46239
Int'l Code: 2011-037JZ
Launch date: July 18, 2011
Source: Commonwealth of Independent States (former USSR) (CIS)
Launch site: TYURATAM MISSILE AND SPACE COMPLEX (TTMTR)

Note: This is SATELLITE DEBRIS
Your satellite tracking list
Your tracking list is empty




NASA's NSSDC Master Catalog

Two Line Element Set (TLE):
1 46239U 11037JZ  22103.02836012  .00654787  00000-0  43183+0 0  9991
2 46239  51.2512 120.1503 1772960 317.1694  30.3540 11.19506787  8791
Source of the keplerian elements: AFSPC